Location: Kouchibouguac National Park
(46.7962°N, 64.9642°W)
Time: 08:34:35
(UTC-04:00)

ISS - Pass Details

Date: 31 October 2019
Orbit: 412 x 421 km, 51.6° (Epoch: 20 November)

Event Time Altitude Azimuth Distance (km) Brightness Sun altitude
Exits shadow 07:09:16 13° 288° (WNW) 1,332 -1.9 -9.2°
Maximum altitude 07:11:57 36° 353° (N) 686 -2.8 -8.8°
Drops below altitude 10° 07:15:08 10° 62° (ENE) 1,508 -0.1 -8.3°
Sets 07:17:20 0° 72° (ENE) 2,372 1.2 -7.9°
